Simultaneous Nadir Overpasses (SNOs) Predictions

Prediction of SNOs between GOES-17 and METOP-B Satellite Orbit:

Table of predicted SNOs for the next 14.0 days since TLE Epoch: 9/26/2025
Index Date Time (GOES-17) GOES-17 Lat,Lon METOP-B Lat,Lon Distance(km) Time Diff (sec)
1 09/27/2025 03:14:57 -0.19, -89.47 -1.01, -93.07 410.31 80
2 09/28/2025 02:51:39 -0.18, -89.47 0.13, -88.09 157.36 80
3 09/29/2025 15:13:13 0.20, -89.52 0.92, -92.66 357.85 80
4 09/30/2025 14:49:55 0.19, -89.52 -0.22, -87.68 209.86 80
5 10/02/2025 03:11:38 -0.21, -89.47 -0.82, -92.29 320.83 80
6 10/03/2025 02:48:19 -0.20, -89.47 0.26, -87.30 247.20 80
7 10/04/2025 15:09:53 0.22, -89.53 0.72, -91.88 267.38 80
8 10/05/2025 14:46:35 0.21, -89.53 -0.36, -86.89 300.87 80
9 10/07/2025 03:08:17 -0.23, -89.48 -0.66, -91.50 229.05 80
10 10/08/2025 02:44:59 -0.21, -89.49 0.43, -86.51 339.37 80
11 10/09/2025 15:06:33 0.24, -89.55 0.55, -91.09 174.99 80
12 10/10/2025 14:43:15 0.23, -89.55 -0.55, -86.10 393.42 80
